User: anonymous   Login
Location: Passau
(48.5830°N, 13.4830°E)
Time: 18:42:02
(UTC+01:00)
Language:

CAS-4A - Orbit

View from above orbital plane
View from above orbital plane
View from above satellite
View from above satellite

Ground track
Ground track

The orbit data is extracted from the following two-line orbital elements,

1 42761U 17034D   21334.20236778  .00000967  00000-0  70616-4 0  9999
2 42761  43.0190 348.5744 0007025 124.2481 324.3822 15.10661296246216
Epoch (UTC): 30 November 2021 04:51:24
Eccentricity: 0.0007025
inclination: 43.0190°
perigee height: 529 km
apogee height: 539 km
right ascension of ascending node: 348.5744°
argument of perigee: 124.2481°
revolutions per day: 15.10661296
mean anomaly at epoch: 324.3822°
orbit number at epoch: 24621

The dashed part of the orbit path shows where the satellite is in the earth's shadow,  

DLR